Prévision chaque heure sur Domdidier


  Conditions Température Point de rosée PrécipitationHauteur de neige Vent Pression UV Index Couverture nuageuse Visibilité
 08:06     17:20   La longueur du jour: 9:14 Aujourd'hui
11:00 3 °
Sensation de: -2.3°
-1.5°    
2
Max: 12 km/h
1011.8 hPa 1% 18 km
12:00 4 °
Sensation de: -1.9°
-1.3°    
3
Max: 16 km/h
1010.6 hPa 1% 18 km
13:00 4 °
Sensation de: -1.2°
-1.2°    
3
Max: 17 km/h
1009.0 hPa 2% 18 km
14:00 5 °
Sensation de: -0.9°
-1.1°    
3
Max: 16 km/h
1007.4 hPa 8% 18 km
15:00 5 °
Sensation de: 0.0°
-1.1°    
2
Max: 14 km/h
1006.4 hPa 13% 18 km
16:00 4 °
Sensation de: -0.3°
-1.2°    
2
Max: 13 km/h
1006.0 hPa   18% 18 km
17:00 4 °
Sensation de: -1.3°
-1.2°    
2
Max: 12 km/h
1006.0 hPa   20% 18 km
18:00 2 °
Sensation de: -1.9°
-1.6°    
1
Max: 8 km/h
1006.0 hPa   21% 18 km
19:00 1 °
Sensation de: -2.9°
-2.0°    
1
Max: 6 km/h
1006.0 hPa   21% 18 km
20:00 1 °
Sensation de: -3.5°
-2.3°    
1
Max: 7 km/h
1006.0 hPa   30% 18 km
21:00 0 °
Sensation de: -4.6°
-2.4°    
2
Max: 10 km/h
1006.0 hPa   45% 18 km
22:00 0 °
Sensation de: -5.7°
-2.5°    
3
Max: 14 km/h
1005.6 hPa   73% 18 km
23:00 -0 °
Sensation de: -6.6°
-2.5°    
4
Max: 16 km/h
1005.2 hPa   95% 18 km
 08:05     17:22   La longueur du jour: 9:17 Demain
00:00 -0 °
Sensation de: -7.4°
-2.4°    
5
Max: 18 km/h
1004.8 hPa   100% 18 km
01:00 -0 °
Sensation de: -7.5°
-2.4°    
5
Max: 19 km/h
1004.4 hPa   100% 18 km
02:00 -0 °
Sensation de: -7.6°
-2.4°    
5
Max: 19 km/h
1003.6 hPa   100% 18 km
03:00 -0 °
Sensation de: -8.3°
-2.3°    
6
Max: 20 km/h
1002.8 hPa   100% 18 km
04:00 -0 °
Sensation de: -8.3°
-2.3°    
6
Max: 21 km/h
1002.0 hPa   100% 18 km
05:00 -1 °
Sensation de: -7.7°
-2.2°    
5
Max: 19 km/h
1001.2 hPa   100% 19 km
06:00 -1 °
Sensation de: -6.3°
-2.2°    
3
Max: 17 km/h
1000.4 hPa   100% 19 km
07:00 -1 °
Sensation de: -5.7°
-2.2°    
2
Max: 13 km/h
1000.0 hPa   100% 19 km
08:00 -1 °
Sensation de: -5.9°
-2.1°    
2
Max: 11 km/h
999.6 hPa   100% 18 km
09:00 -1 °
Sensation de: -5.8°
-2.0°    
2
Max: 11 km/h
999.2 hPa   100% 18 km
10:00 -0 °
Sensation de: -5.5°
-1.8°    
2
Max: 12 km/h
998.8 hPa   100% 18 km
11:00 -0 °
Sensation de: -5.9°
-1.7°    
3
Max: 13 km/h
998.4 hPa   100% 18 km
12:00 0 °
Sensation de: -5.6°
-1.5°    
3
Max: 13 km/h
997.8 hPa   100% 18 km
13:00 1 °
Sensation de: -5.2°
-1.3°    
3
Max: 13 km/h
997.4 hPa   100% 18 km
14:00 1 °
Sensation de: -4.3°
-1.2°    
2
Max: 13 km/h
997.0 hPa   100% 1.0 km
15:00 0 °
Sensation de: -4.9°
-1.0° 0.8 mm 0 cm
2
Max: 9 km/h
997.2 hPa   97% 1.0 km
16:00 0 °
Sensation de: -4.9°
-1.0°   0 cm
2
Max: 7 km/h
997.6 hPa   98% 18 km
17:00 0 °
Sensation de: -4.9°
-1.0°   0 cm
2
Max: 10 km/h
998.4 hPa   98% 1.2 km
18:00 -0 °
Sensation de: -6.1°
-0.9° 0.5 mm 1 cm
3
Max: 15 km/h
999.2 hPa   98% 1.1 km
19:00 -0 °
Sensation de: -6.2°
-0.9°   1 cm
3
Max: 17 km/h
1000.2 hPa   97% 10 km
20:00 -1 °
Sensation de: -7.0°
-0.9°   1 cm
4
Max: 18 km/h
1001.0 hPa   93% 1.2 km
21:00 -1 °
Sensation de: -7.3°
-0.9°   1 cm
4
Max: 18 km/h
1001.8 hPa   85% 1.0 km
22:00 -1 °
Sensation de: -8.1°
-0.9°   1 cm
5
Max: 19 km/h
1002.6 hPa   72% 2.3 km
23:00 -1 °
Sensation de: -8.3°
-1.1°   1 cm
5
Max: 19 km/h
1003.4 hPa   61% 2.0 km
 08:04     17:23   La longueur du jour: 9:19 Jeudi 24 Jan
00:00 -1 °
Sensation de: -9.9°
-1.3°   1 cm
7
Max: 20 km/h
1004.0 hPa   53% 1.1 km
01:00 -2 °
Sensation de: -9.5°
-1.5°   1 cm
6
Max: 20 km/h
1004.8 hPa   45% 1.1 km
02:00 -2 °
Sensation de: -9.7°
-1.7°   1 cm
6
Max: 19 km/h
1005.6 hPa   39% 1.5 km
03:00 -2 °
Sensation de: -9.2°
-2.0°   1 cm
5
Max: 18 km/h
1006.4 hPa   36% 1.9 km
04:00 -2 °
Sensation de: -9.5°
-2.2°   1 cm
5
Max: 17 km/h
1007.0 hPa   32% 2.1 km
05:00 -2 °
Sensation de: -9.0°
-2.4°   1 cm
4
Max: 16 km/h
1007.6 hPa   33% 2.5 km
06:00 -3 °
Sensation de: -9.2°
-2.6°   1 cm
4
Max: 15 km/h
1008.4 hPa   35% 3.0 km
07:00 -3 °
Sensation de: -8.8°
-2.9°   1 cm
3
Max: 15 km/h
1009.0 hPa   38% 3.5 km
08:00 -3 °
Sensation de: -9.0°
-3.1°   1 cm
3
Max: 14 km/h
1009.6 hPa   43% 3.7 km
09:00 -3 °
Sensation de: -9.6°
-3.1°   1 cm
4
Max: 15 km/h
1010.2 hPa   48% 4.3 km
10:00 -3 °
Sensation de: -9.1°
-2.8°   1 cm
4
Max: 17 km/h
1010.6 hPa   52% 6.1 km